www.pogodaiklimat.ru

Погода и климат >> Архив погоды >> Италия >> Казерта


ПОГОДА в Казерте

  • Прогноз погоды в Казерте
  • Монитор погоды в Казерте

АРХИВ ПОГОДЫ в Казерте

Время (UTC), дата Ветер
(напр.,м/с)
 
Видим.   Явления Облачность Т
(С)
Тd
(С)
f
(%)
Тe
(С)
Тes
(С)
Комфортность P
(гПа)
Po
(гПа)
Тmin
(С)
Tmax
(С)
R
(мм)
R24
(мм)
S
(см)
04 18.08 0 н/о н/о 1008.9
05 18.08 0 н/о н/о 1009.1
06 18.08 0 н/о н/о 1009.2 1
07 18.08 0 н/о н/о 1009.4
08 18.08 0 н/о н/о 1009.6
09 18.08 0 н/о н/о 1009.5
10 18.08 0 н/о н/о 1009.4
21 18.08 0 н/о н/о 1009.0
22 18.08 0 н/о н/о 1009.0
23 18.08 0 н/о н/о 1009.1
00 19.08 0 н/о н/о 1009.1
01 19.08 0 н/о н/о 1008.8
02 19.08 0 н/о н/о 1008.8
03 19.08 0 н/о н/о 1008.8
04 19.08 0 н/о н/о 1008.8
05 19.08 0 н/о н/о 1009.1
06 19.08 0 н/о н/о 1009.3 1
07 19.08 0 н/о н/о 1009.4
08 19.08 0 н/о н/о 1009.6
09 19.08 0 н/о н/о 1009.7
10 19.08 0 н/о н/о 1009.7
22 19.08 0 н/о н/о 1010.0
23 19.08 0 н/о н/о 1009.9
00 20.08 0 н/о н/о 1009.9
01 20.08 0 н/о н/о 1009.9
02 20.08 0 н/о н/о 1009.7
03 20.08 0 н/о н/о 1009.5
04 20.08 0 н/о н/о 1009.4
05 20.08 0 н/о н/о 1009.6
06 20.08 0 н/о н/о 1009.7 1
07 20.08 0 н/о н/о 1009.6
08 20.08 0 н/о н/о 1009.8
09 20.08 0 н/о н/о 1010.2
10 20.08 0 н/о н/о 1010.2
22 20.08 0 н/о н/о 1010.4
23 20.08 0 н/о н/о 1010.1
00 21.08 0 н/о н/о 1009.9
01 21.08 0 н/о н/о 1009.7
02 21.08 0 н/о н/о 1009.8
03 21.08 0 н/о н/о 1009.7
04 21.08 0 н/о н/о 1009.8
05 21.08 0 н/о н/о 1010.2
06 21.08 0 н/о н/о 1010.7 1
07 21.08 0 н/о н/о 1010.8
08 21.08 0 н/о н/о 1011.0
09 21.08 0 н/о н/о 1011.0
10 21.08 0 н/о н/о 1010.8
22 21.08 0 н/о н/о 1010.9
23 21.08 0 н/о н/о 1010.8
00 22.08 0 н/о н/о 1010.5
01 22.08 0 н/о н/о 1010.4
02 22.08 0 н/о н/о 1010.2
03 22.08 0 н/о н/о 1010.2
04 22.08 0 н/о н/о 1010.2
05 22.08 0 н/о н/о 1010.6
06 22.08 0 н/о н/о 1010.7 1
07 22.08 0 н/о н/о 1010.7
08 22.08 0 н/о н/о 1010.9
09 22.08 0 н/о н/о 1011.0
10 22.08 0 н/о н/о 1011.1
22 22.08 0 н/о н/о 1010.8
23 22.08 0 н/о н/о 1010.8
00 23.08 0 н/о н/о 1010.4
01 23.08 0 н/о н/о 1010.2
02 23.08 0 н/о н/о 1010.0
03 23.08 0 н/о н/о 1010.0
04 23.08 0 н/о н/о 1010.1
05 23.08 0 н/о н/о 1010.5
06 23.08 0 н/о н/о 1010.6 1
07 23.08 0 н/о н/о 1010.6
08 23.08 0 н/о н/о 1011.0
09 23.08 0 н/о н/о 1011.0
21 23.08 0 н/о н/о 1010.4
22 23.08 0 н/о н/о 1010.0
23 23.08 0 н/о н/о 1009.6
00 24.08 0 н/о н/о 1009.6
01 24.08 0 н/о н/о 1009.6
02 24.08 0 н/о н/о 1009.6
03 24.08 0 н/о н/о 1009.7
04 24.08 0 н/о н/о 1009.8
05 24.08 0 н/о н/о 1009.9
06 24.08 0 н/о н/о 1009.8 1
07 24.08 0 н/о н/о 1010.0
08 24.08 0 н/о н/о 1010.3
09 24.08 0 н/о н/о 1010.4
10 24.08 0 н/о н/о 1010.3
21 24.08 0 н/о н/о 1009.6
22 24.08 0 н/о н/о 1009.7
23 24.08 0 н/о н/о 1009.4
00 25.08 0 н/о н/о 1009.1
01 25.08 0 н/о н/о 1008.9
02 25.08 0 н/о н/о 1008.8

 

Местоположение метеостанции Казерта (Италия): широта 41.07 долгота 14.32 высота над уровнем моря 61 м.

В архиве по умолчанию представлена погода в Казерте за последнюю неделю. Архивные данные за месяц целиком и за предыдущие месяцы, начиная с января 2011 года, Вы можете получить, выбрав интересующий диапазон дат из раскрывающегося списка и нажав кнопку "Ввод!".


*Определитесь, кто Вы:
робот инопланетянин человек

Внимание! Время в таблицах - всемирное. Для получения местного времени необходимо прибавить поправку, которая равна 1 ч.

Смотрите также архив погоды в соседних городах и на ближайших метеорологических станциях:

Погода в Граццанизе (Италия) (21 км)
Погода в Неаполе (Италия) (25 км)
Погода на Капри (Италия) (59 км)
Погода в Кампобассо (Италия) (62 км)
Погода в Тревико (Италия) (76 км)
Погода в Торре-Олеволе (Италия) (102 км)
Погода во Фрозиноне (Италия) (106 км)
Погода на Понце (Италия) (116 км)
Погода в Фучино (Италия) (117 км)
Погода в Термоли (Италия) (118 км)

Пояснения к столбцам:

Ветер - указаны скорость ветра в м/с - средняя за 10 мин, порывы в срок и между сроками (в фигурных скобках) и направление, откуда дует ветер: С - северный, СВ - северо-восточный, В - восточный, ЮВ - юго-восточный, Ю - южный, ЮЗ - юго-западный, З - западный, СЗ - северо-западный.
Видимость - горизонтальная дальность видимости в метрах или километрах. При видимости от 1 до 10 км при отсутствии осадков обычно наблюдается дымка, при ухудшении видимости до 1 км и менее - туман. В сухую погоду видимость может ухудшаться дымом, пылью или мглою.
Явления - указаны атмосферные явления, наблюдавшиеся в срок или в последний час перед сроком; фигурными скобками обозначены явления, наблюдавшиеся между сроками (за 1-3 часа до срока); квадратными скобками обозначены град или гололедные отложения с указанием их диаметра в мм.
Облачность - указаны через наклонную черту общая и нижняя облачность в баллах и высота нижней границы облаков в метрах; квадратными скобками обозначены формы облаков: Ci - перистые, Cs - перисто-слоистые, Cc - перисто-кучевые, Ac - высококучевые, As - высокослоистые, Sc - слоисто-кучевые, Ns - слоисто-дождевые, Cu - кучевые, Cb - кучево-дождевые. Подробнее классификацию облаков см. в Атласе облаков (PDF).
T - Температура воздуха - температура, измеренная на высоте 2 м над землей.
Td - Температура точки росы - температура, при понижении до которой содержащийся в воздухе водяной пар достигнет насыщения.
f - Относительная влажность воздуха - влажноcть воздуха, измеренная на высоте 2 м над землей.
Te - Эффективная температура - температура, которую ощущает одетый по сезону человек в тени. Характеристика душности погоды. При расчете учитывается влияние влажности воздуха и скорости ветра на теплоощущения человека.
Tes - Эффективная температура на солнце - температура, которую ощущает человек, с поправкой на солнечный нагрев. Характеристика знойности погоды. Зависит от высоты солнца над горизонтом, облачности и скорости ветра. Ночью, в пасмурную погоду, а также при ветре 12 м/с и более поправка равна нулю.
P - Атмосферное давление - приведенное к уровню моря атмосферное давление.
Po - Атмосферное давление - измеренное на уровне метеостанции атмосферное давление.
Tmin - Минимальная температура - минимум температуры воздуха на высоте 2 м над землей.
Tmax - Максимальная температура - максимум температуры воздуха на высоте 2 м над землей.
R - Количество осадков - Количество выпавших осадков за период времени, мм. При наведении курсора мыши на число - период времени, за который выпало указанное количество осадков.
R24 - Количество осадков - Количество выпавших осадков за 24 часа, мм.
S - Снежный покров - Высота снежного покрова, см. При наведении курсора мыши на число - состояние снежного покрова и степень покрытия местности в баллах.